Fecha, hora, temperatura, viento dirección y velocidad, humedad y presión.

  • 17-07-2019 00:00:00 | 19.80°C | Nordeste |10.00 km/h | 85.00% | 0.00 hPa
  • 16-07-2019 23:00:00 | 19.80°C | Nordeste |7.00 km/h | 83.00% | 0.00 hPa
  • 16-07-2019 22:00:00 | 19.80°C | Este |4.00 km/h | 83.00% | 0.00 hPa
  • 16-07-2019 21:00:00 | 20.00°C | Sudeste |9.00 km/h | 82.00% | 0.00 hPa
  • 16-07-2019 20:00:00 | 20.40°C | Sudeste |12.00 km/h | 76.00% | 0.00 hPa
  • 16-07-2019 19:00:00 | 20.80°C | Sudeste |11.00 km/h | 76.00% | 0.00 hPa
  • 16-07-2019 18:00:00 | 21.00°C | Sudeste |10.00 km/h | 74.00% | 0.00 hPa
  • 16-07-2019 17:00:00 | 20.90°C | Este |6.00 km/h | 74.00% | 0.00 hPa
  • 16-07-2019 16:00:00 | 20.80°C | Este |8.00 km/h | 74.00% | 0.00 hPa
  • 16-07-2019 15:00:00 | 20.80°C | Este |8.00 km/h | 76.00% | 0.00 hPa
  • 16-07-2019 14:00:00 | 20.50°C | Nordeste |12.00 km/h | 76.00% | 0.00 hPa
  • 16-07-2019 13:00:00 | 20.80°C | Este |8.00 km/h | 73.00% | 0.00 hPa
  • 16-07-2019 12:00:00 | 20.80°C | Nordeste |5.00 km/h | 79.00% | 0.00 hPa
  • 16-07-2019 11:00:00 | 21.00°C | Nordeste |5.00 km/h | 81.00% | 0.00 hPa
  • 16-07-2019 10:00:00 | 19.90°C | Este |6.00 km/h | 85.00% | 0.00 hPa
  • 16-07-2019 09:00:00 | 19.90°C | Este |6.00 km/h | 90.00% | 0.00 hPa
  • 16-07-2019 08:00:00 | 19.10°C | Este |3.00 km/h | 92.00% | 0.00 hPa
  • 16-07-2019 07:00:00 | 17.80°C | Este |6.00 km/h | 92.00% | 0.00 hPa
  • 16-07-2019 06:00:00 | 17.80°C | Sudeste |5.00 km/h | 92.00% | 0.00 hPa
  • 16-07-2019 05:00:00 | 17.80°C | Sudeste |8.00 km/h | 92.00% | 0.00 hPa
  • 16-07-2019 04:00:00 | 18.20°C | Este |9.00 km/h | 92.00% | 0.00 hPa
  • 16-07-2019 02:00:00 | 18.60°C | Este |14.00 km/h | 92.00% | 0.00 hPa
  • 16-07-2019 01:00:00 | 18.90°C | Este |16.00 km/h | 92.00% | 0.00 hPa
  • 16-07-2019 00:00:00 | 19.40°C | Este |16.00 km/h | 92.00% | 0.00 hPa
    • Información sobre el estado de las mareas, altura de la marejada, temperatura del agua y otros datos de Gijón en Asturias.

      Surf Gijón